STARLINK-35659, 66385

Orbit data source: Space-Track

STARLINK-35659, 66385 is a payload satellite owned by SpaceX/Seattle (US) in LEO that was launched on Sat, 08 Nov 2025 UTC via an FALCON 9 launch vehicle from the Air Force Eastern Test Range (AFETR). Payload-class satellites include a variety of spacecraft equipped with specific instruments for various scientific and technological missions. These include communications satellites like Starlink; space stations such as the ISS; scientific satellites like the Hubble; Earth observation satellites from companies like Planet Labs, Umbra, and HawkEye 360; GPS; miniature CubeSats for education and research; and military/defense satellites.

Loading next visibility...
Identifier
66385, 2025-257F
Orbit
LEO
Country
Flag of USUS
Related business
Manufacturer
SpaceX/Seattle
Mission
Operational Commercial Communications
Bus & Motor
STARLINK V2MO, Unknown motor
Mass
575 kg wet, ~530 kg dry
Launch date (UTC)
2025-11-08 (7 months ago)
Launch vehicle
FALCON 9
Launch site
Air Force Eastern Test Range (AFETR)
Object type
Payload
Rocket body
Debris
Shape & HBR
Box + 2 Pan, 17.7 m
Radar Cross Section
36.964 m², Large (>1 m²)

Expand to show TLE details & history
Last TLE update: 1 day ago

TLE from 1 day ago
0 STARLINK-35659
1 66385U 25257F   26170.80832944  .00020273  00000-0  60934-3 0  9992
2 66385  53.1587 100.9028 0001567 100.4522 259.6658 15.34409127 35399
Epoch: 2026-06-19T19:23Z
TLE epoch observation values (Epoch: 2026-06-19T19:23:59.663Z)
Latitude
0.00003°
Longitude
-98.12776°
Altitude
463.77 km
Speed
7.636 km/s
True Right ascension
06h 43m 36s
True Declination
0° 00' 00"
Sunlit
Object was in daylight at epoch
Visualization orbit readout
Latitude
Unknown
Longitude
Unknown
Altitude
Unknown
Speed
Unknown
Apparent Right ascension
Unknown
Apparent Declination
Unknown
Sunlit
N/A
Visualization observer readout
Local Sidereal Time
07:16:04
Azimuth
Unknown
Elevation
Unknown
Doppler factor
Unknown
Orbital elements
Apogee altitude
464.005 km
Perigee altitude
461.861 km
Semi-major axis
6,841.07 km
Eccentricity
0.00016
Inclination
53.1587°
RAAN
100.9028°
Arg. of periapsis
100.4522°
True anomaly
259.64814°
Mean anomaly
259.6658°
Eccentric anomaly
259.65697°
Mean motion
3.83581 °/min
Orbital period
93.85 mins
BSTAR
0.00060934
Loading maneuver chart data...
Computing Atmospheric mass density...
Loading historical data...
Loading historical data...
Loading historical data...
Loading historical data...
Loading historical data...
Loading historical data...
Loading historical data...

Documentation

Showing up to 5 results
|